Location: French Creek State Gamelands
(40.1750°N, 75.7969°W)
Time: 03:48:23
(UTC-04:00)

ISS - All Passes

Search period start: 01 August 2014 00:00
Search period end: 11 August 2014 00:00
Orbit: 411 x 419 km, 51.6° (Epoch: 01 August)

Date Brightness Start Highest point End Pass type
(mag) Time Alt. Az. Time Alt. Az. Time Alt. Az.
01 Aug - 01:19:40 10° NW 01:21:23 13° N 01:23:06 10° NNE visible
01 Aug - 02:57:27 10° NNW 02:59:14 14° N 03:01:00 10° NE visible
01 Aug - 04:33:30 10° NW 04:36:40 38° NNE 04:39:50 10° E visible
01 Aug - 06:10:27 10° WNW 06:13:16 25° SW 06:16:05 10° S daylight
01 Aug - 21:16:38 10° SSE 21:18:38 15° SE 21:20:38 10° E visible
01 Aug - 22:51:43 10° WSW 22:55:00 58° NW 22:58:19 10° NE visible
02 Aug - 00:30:09 10° NW 00:32:17 16° NNW 00:34:24 10° NNE visible
02 Aug - 02:08:40 10° NNW 02:10:05 12° N 02:11:31 10° NNE visible
02 Aug - 03:44:49 10° NW 03:47:42 26° NNE 03:50:35 10° E visible
02 Aug - 05:21:19 10° WNW 05:24:32 45° SW 05:27:45 10° SSE visible
02 Aug - 22:02:50 10° SW 22:06:09 80° SE 22:09:30 10° NE visible
02 Aug - 23:40:40 10° WNW 23:43:12 20° NNW 23:45:44 10° NNE visible
03 Aug - 01:19:38 10° NNW 01:20:56 12° N 01:22:13 10° NNE visible
03 Aug - 02:56:09 10° NNW 02:58:40 19° NNE 03:01:11 10° ENE visible
03 Aug - 04:32:22 10° NW 04:35:45 84° SW 04:39:05 10° SE visible
03 Aug - 21:14:11 10° SSW 21:17:21 42° SE 21:20:32 10° ENE visible
03 Aug - 22:51:17 10° W 22:54:10 26° NNW 22:57:04 10° NE visible
04 Aug - 00:30:20 10° NNW 00:31:46 12° N 00:33:12 10° NNE visible
04 Aug - 02:07:29 10° NNW 02:09:35 15° NNE 02:11:40 10° NE visible
04 Aug - 03:43:33 10° NW 03:46:52 56° NE 03:50:10 10° ESE visible
04 Aug - 05:21:07 10° W 05:23:16 16° SW 05:25:24 10° S visible
04 Aug - 20:25:53 10° S 20:28:36 24° SE 20:31:20 10° ENE daylight
04 Aug - 22:02:01 10° WSW 22:05:10 39° NNW 22:08:21 10° NE visible
04 Aug - 23:40:49 10° NW 23:42:36 14° N 23:44:23 10° NNE visible
05 Aug - 01:18:45 10° NNW 01:20:26 13° N 01:22:07 10° NE visible
05 Aug - 02:54:48 10° NW 02:57:55 35° NNE 03:01:02 10° E night (unlit)
05 Aug - 04:31:38 10° WNW 04:34:34 28° SW 04:37:29 10° SSE visible
05 Aug - 19:38:14 10° SSE 19:39:55 13° SE 19:41:36 10° E daylight
05 Aug - 21:12:56 10° WSW 21:16:15 65° NW 21:19:34 10° NE visible
05 Aug - 22:51:16 10° WNW 22:53:28 16° NNW 22:55:40 10° NNE visible
06 Aug - 00:29:54 10° NNW 00:31:16 12° N 00:32:38 10° NNE visible
06 Aug - 02:06:05 10° NNW 02:08:54 24° NNE 02:11:43 10° E night (unlit)
06 Aug - 03:42:31 10° WNW 03:45:47 51° SW 03:49:03 10° SE night (unlit)
06 Aug - 20:24:04 10° SW 20:27:22 70° SE 20:30:41 10° ENE daylight
06 Aug - 22:01:46 10° WNW 22:04:22 21° NNW 22:06:58 10° NNE visible
06 Aug - 23:40:47 10° NNW 23:42:04 12° N 23:43:21 10° NNE visible
07 Aug - 01:17:24 10° NNW 01:19:49 18° NNE 01:22:15 10° ENE visible
07 Aug - 02:53:34 10° NW 02:56:56 87° NE 03:00:17 10° SE night (unlit)
07 Aug - 19:35:27 10° SSW 19:38:33 37° SE 19:41:39 10° ENE daylight
07 Aug - 21:12:22 10° W 21:15:18 28° NNW 21:18:16 10° NE visible
07 Aug - 22:51:23 10° NNW 22:52:52 12° N 22:54:21 10° NNE visible
08 Aug - 00:28:41 10° NNW 00:30:41 15° NNE 00:32:41 10° NE visible
08 Aug - 02:04:44 10° NW 02:08:01 50° NNE 02:11:17 10° ESE night (unlit)
08 Aug - 03:42:06 10° W 03:44:28 18° SW 03:46:49 10° S night (unlit)
08 Aug - 18:47:13 10° S 18:49:47 21° SE 18:52:21 10° E daylight
08 Aug - 20:23:07 10° WSW 20:26:18 43° NNW 20:29:30 10° NE daylight
08 Aug - 22:01:50 10° NW 22:03:41 14° NNW 22:05:32 10° NNE visible
08 Aug - 23:39:55 10° NNW 23:41:31 13° N 23:43:06 10° NE visible
09 Aug - 01:15:58 10° NW 01:19:02 32° NNE 01:22:05 10° E visible
09 Aug - 02:52:42 10° WNW 02:55:43 31° SW 02:58:44 10° SSE night (unlit)
09 Aug - 17:59:49 10° SSE 18:01:04 12° SE 18:02:20 10° ESE daylight
09 Aug - 19:34:02 10° WSW 19:37:21 73° NW 19:40:41 10° NE daylight
09 Aug - 21:12:15 10° WNW 21:14:31 17° NNW 21:16:48 10° NNE visible
09 Aug - 22:51:00 10° NNW 22:52:18 12° N 22:53:37 10° NNE visible
10 Aug - 00:27:14 10° NNW 00:29:58 23° NNE 00:32:42 10° ENE visible
10 Aug - 02:03:35 10° WNW 02:06:54 58° SW 02:10:11 10° SE night (unlit)
10 Aug - 18:45:11 10° SW 18:48:27 61° SE 18:51:45 10° ENE daylight
10 Aug - 20:22:44 10° WNW 20:25:24 22° NNW 20:28:05 10° NNE daylight
10 Aug - 22:01:47 10° NNW 22:03:04 12° N 22:04:22 10° NNE visible
10 Aug - 23:38:31 10° NNW 23:40:51 17° NNE 23:43:10 10° ENE visible
